Parsons, KS

6:02 AM CST on November 17, 2019 (GMT -0600)
Tri-City

Weather History for KPPF - July, 2019

Change the Weather History Date:

Wednesday, July 31, 2019

  Actual Average Record
Temperature  
Mean Temperature 81 °F -  
Max Temperature 91 °F 92 °F 108 °F (1980)
Min Temperature 72 °F 67 °F 52 °F (1971)
Cooling Degree Days 16    
Growing Degree Days 31 (Base 50)    
Moisture  
Dew Point 69 °F    
Average Humidity 70    
Maximum Humidity 84    
Minimum Humidity 48    
Precipitation  
Precipitation 0.02 in - - ()
Sea Level Pressure  
Sea Level Pressure 30.03 in    
Wind  
Wind Speed 3 mph (SE)    
Max Wind Speed 9 mph    
Max Gust Speed 17 mph    
Visibility 10 miles    
Events      
Averages and records for this station are not official NWS values.
T = Trace of Precipitation, MM = Missing Value Source: NWS Daily Summary

Daily Weather History Graph

Daily Weather History Graph

Search for Another Location

Airport or City:

Astronomy

Jul. 31, 2019 Rise Set
Actual Time 6:25 AM CDT 8:30 PM CDT
Civil Twilight 5:56 AM CDT 8:59 PM CDT
Nautical Twilight 5:21 AM CDT 9:34 PM CDT
Astronomical Twilight 4:42 AM CDT 10:13 PM CDT
Moon 5:41 AM CDT (7/31) 8:30 PM CDT (7/31)
Length of Visible Light 15h 03m
Length of Day
14h 05m
Waning Crescent, 0% of the Moon is Illuminated
Jul 31
Waning Crescent
Jul 31
New
Aug 7
First Quarter
Aug 15
Full
Aug 23
Last Quarter

Hourly Weather History & Observations

Time (CDT) Temp. Heat Index Dew Point Humidity Pressure Visibility Wind Dir Wind Speed Gust Speed Precip Events Conditions
12:52 AM 73.0 °F - 68.0 °F 84% 30.05 in 10.0 mi Calm Calm - N/A   Clear
1:52 AM 73.9 °F - 66.9 °F 79% 30.03 in 10.0 mi Calm Calm - N/A   Clear
2:52 AM 73.0 °F - 66.9 °F 81% 30.03 in 10.0 mi Variable 3.5 mph - N/A   Clear
3:52 AM 72.0 °F - 66.9 °F 84% 30.02 in 10.0 mi Variable 3.5 mph - N/A   Clear
4:52 AM 72.0 °F - 66.9 °F 84% 30.04 in 10.0 mi Calm Calm - N/A   Clear
5:52 AM 72.0 °F - 66.9 °F 84% 30.05 in 10.0 mi East 3.5 mph - N/A   Scattered Clouds
6:52 AM 72.0 °F - 66.9 °F 84% 30.05 in 10.0 mi Variable 3.5 mph - N/A   Partly Cloudy
7:52 AM 73.9 °F - 66.9 °F 79% 30.06 in 10.0 mi Calm Calm - N/A   Mostly Cloudy
8:52 AM 75.0 °F - 68.0 °F 79% 30.10 in 10.0 mi Calm Calm - N/A   Overcast
9:52 AM 75.9 °F - 68.0 °F 76% 30.09 in 10.0 mi Variable 3.5 mph - N/A   Partly Cloudy
10:52 AM 82.0 °F 85.9 °F 70.0 °F 67% 30.09 in 10.0 mi SSE 4.6 mph - N/A   Partly Cloudy
11:52 AM 84.9 °F 89.4 °F 70.0 °F 61% 30.09 in 10.0 mi SE 5.8 mph - N/A   Clear
12:52 PM 87.1 °F 93.6 °F 72.0 °F 61% 30.08 in 10.0 mi Variable 3.5 mph - N/A   Clear
1:52 PM 88.0 °F 93.8 °F 71.1 °F 57% 30.05 in 10.0 mi Variable 4.6 mph - N/A   Clear
2:52 PM 89.1 °F 92.9 °F 68.0 °F 50% 30.04 in 10.0 mi North - - N/A   Clear
3:52 PM 90.0 °F 93.6 °F 68.0 °F 48% 30.03 in 10.0 mi Variable 5.8 mph 17.3 mph N/A   Clear
4:52 PM 90.0 °F 94.5 °F 69.1 °F 50% 30.00 in 10.0 mi SE 9.2 mph 17.3 mph N/A   Clear
5:52 PM 90.0 °F 96.4 °F 71.1 °F 54% 29.98 in 10.0 mi SSE 8.1 mph - N/A   Clear
6:52 PM 88.0 °F 92.1 °F 69.1 °F 53% 29.97 in 10.0 mi SE 6.9 mph - N/A   Clear
7:52 PM 86.0 °F 92.2 °F 72.0 °F 63% 29.97 in 10.0 mi SE 3.5 mph - N/A   Clear
8:52 PM 82.9 °F 88.0 °F 72.0 °F 69% 29.99 in 10.0 mi Calm Calm - N/A   Clear
9:52 PM 81.0 °F 85.8 °F 73.0 °F 77% 29.99 in 10.0 mi ESE 3.5 mph - N/A   Clear
10:52 PM 81.0 °F 85.8 °F 73.0 °F 77% 29.99 in 10.0 mi Variable 5.8 mph - N/A   Scattered Clouds
11:52 PM 79.0 °F - 73.9 °F 84% 29.99 in 10.0 mi SE 5.8 mph - 0.02 in   Scattered Clouds